[[{"header":{"parameterUnit":"m.s-1","parameterCategory":1,"la1":30.2991,"la2":30.254,"lo1":-89.0895,"lo2":-89.0444,"dy":0.0017,"dx":0.0017,"nx":28,"ny":28,"refTime":"2025-01-31T09:00:00:Z","depth":0,"parameterNumber":2,"parameterNumberName":"U-component_of_WINDS"},"data":[0,0,0,0,0,0,0,0,0,0,0,0,0,0,0,0,0,0,0,0,0,0,0,0,0,0,0,0,0,0,0,0,0,0,0,0,0,0,0,0,0,0,0,0,0,0,0,0,0,0,0,0,0,0,0,0,0,0,2.7907,2.7907,0,2.7951,2.7952,2.7953,2.7953,2.7952,2.7952,2.7951,2.8001,2.8003,2.8004,0,0,0,0,0,0,0,0,0,0,0,0,0,2.7826,2.7828,2.7907,2.7907,2.7908,2.7951,2.7952,2.7953,2.7953,2.7952,2.7952,2.7951,2.8,2.8002,2.8005,0,0,0,0,0,0,0,0,0,0,0,0,0,2.7865,2.7828,2.7906,2.7913,2.7914,2.7951,2.7952,2.7953,2.7953,2.7952,2.7951,2.7951,2.7999,2.8002,2.8005,2.8039,0,0,2.8013,2.8015,0,0,0,0,0,0,0,0,2.7863,2.7868,2.7912,2.7913,2.7914,2.7946,2.7942,2.7982,2.7953,2.7938,2.7951,2.795,2.7983,2.7987,2.7998,2.8042,2.8044,2.8014,2.8015,2.8016,2.8017,0,0,0,0,0,0,0,2.786,2.7866,2.7924,2.7912,2.7914,2.7916,2.792,2.7949,2.7965,2.794,2.794,2.7945,2.7984,2.7995,2.7999,2.8045,2.8013,2.8016,2.8018,2.8019,2.8122,2.8123,0,0,0,0,0,0,2.7856,2.7864,2.7923,2.7926,2.7886,2.7918,2.7923,2.7936,2.7965,2.7968,2.7946,2.7945,2.7991,2.7996,2.8001,2.8045,2.8016,2.8019,2.8021,2.8121,2.8123,2.8124,0,0,0,0,0,0,2.7854,2.7861,2.7921,2.7895,2.7903,2.792,2.7935,2.7938,2.7949,2.7969,2.7973,2.7954,2.799,2.7997,2.803,2.8046,2.802,2.8023,2.812,2.8122,2.8123,2.8132,0,0,0,0,0,0,2.7852,2.786,2.7872,2.7895,2.7904,2.7948,2.7936,2.7939,2.7953,2.7953,2.7978,2.7981,2.799,2.8026,2.8033,2.805,2.8025,2.8119,2.8121,2.8123,2.813,2.8133,2.8136,0,0,0,0,0,2.7849,2.7873,2.7873,2.788,2.7919,2.7949,2.7954,2.7963,2.7955,2.7968,2.7981,2.7981,2.8044,2.8029,2.8037,2.8055,2.8118,2.812,2.8123,2.8129,2.8133,2.8136,0,0,0,0,0,0,2.7851,2.7876,2.7876,2.7908,2.7926,2.7949,2.7965,2.7966,2.7988,2.7987,2.7998,2.8004,2.8037,2.805,2.8033,2.8092,2.808,2.8084,2.8082,2.8086,2.8089,2.8085,2.8027,0,0,0,0,0,2.7856,2.7877,2.7897,2.7924,2.7933,2.7948,2.7961,2.7966,2.7986,2.7994,2.801,2.8031,2.8056,2.8072,2.8095,2.8132,2.8139,2.8149,2.8152,2.8154,2.8158,2.818,2.8185,2.8132,2.8132,2.8132,0,0,2.7865,2.7881,2.7893,2.7925,2.794,2.7963,2.7954,2.7978,2.7996,2.7998,2.8031,2.8044,2.8068,2.8104,2.812,2.8115,2.8174,2.8157,2.8159,2.8161,2.8183,2.8189,2.8193,2.8134,2.8133,2.8133,0,0,2.7893,2.7906,2.7931,2.7946,2.7969,2.7979,2.7985,2.8008,2.8017,2.805,2.8052,2.8075,2.8116,2.8134,2.8149,2.8187,2.8188,2.8195,2.8211,2.8233,2.8237,2.8241,2.8256,2.8261,2.8198,2.8198,2.8198,0,2.7901,2.7935,2.7943,2.7968,2.7983,2.7986,2.8012,2.8027,2.8057,2.8068,2.8061,2.8115,2.8132,2.8173,2.8182,2.8194,2.8202,2.8191,2.8236,2.8239,2.8243,2.8258,2.8263,2.8199,2.8199,2.8199,2.8199,0,2.7945,2.7968,2.7986,2.8014,2.8031,2.8056,2.807,2.8087,2.8092,2.8103,2.8138,2.8159,2.8187,2.8198,2.8202,2.824,2.8237,2.8233,2.8221,2.8249,2.8263,2.8268,2.82,2.82,2.8199,2.8199,0,0,2.7973,2.8008,2.8014,2.8028,2.8055,2.8074,2.8101,2.8129,2.8144,2.8165,2.8189,2.8226,2.8223,2.824,2.8247,2.8267,2.8298,2.8261,2.8262,2.8268,2.8343,2.8346,2.8352,2.8299,2.83,2.8301,2.8341,0,2.8005,2.805,2.8061,2.8101,2.8124,2.8129,2.8153,2.8173,2.8186,2.8209,2.8224,2.825,2.8244,2.8254,2.8274,2.829,2.8313,2.8287,2.8323,2.8324,2.8316,2.8359,2.8361,2.8397,2.8347,2.8348,2.8348,0,2.8046,2.8069,2.8111,2.8138,2.8148,2.8169,2.8196,2.8218,2.8242,2.825,2.827,2.8276,2.8307,2.8295,2.8338,2.832,2.8336,2.8347,2.8349,2.8352,2.8337,2.8364,2.8409,2.8415,2.8357,2.8356,2.8355,0,2.8064,2.8105,2.8136,2.8148,2.8179,2.8194,2.8208,2.8232,2.8248,2.8274,2.8285,2.8314,2.8329,2.8352,2.8367,2.8357,2.841,2.8399,2.8419,2.8419,2.8429,2.8428,2.8478,2.844,2.844,2.8439,2.8439,0,2.8097,2.8123,2.8145,2.8164,2.8194,2.8207,2.8238,2.8252,2.8273,2.8297,2.8304,2.8327,2.8345,2.837,2.8382,2.8418,2.8425,2.8433,2.8436,2.8433,2.8432,2.8443,2.844,2.8441,2.8441,2.844,2.844,0,2.8121,2.8136,2.8171,2.8198,2.8206,2.8227,2.8252,2.8272,2.8286,2.8316,2.8324,2.8346,2.8377,2.8394,2.8433,2.8441,2.8481,2.8483,2.8472,2.8473,2.8493,2.8491,2.8552,2.8561,2.8516,2.8517,2.8517,0,2.8141,2.8161,2.8191,2.8207,2.8221,2.8247,2.8265,2.828,2.8298,2.8329,2.8346,2.8378,2.8403,2.8453,2.8474,2.8505,2.8507,2.8526,2.8512,2.8508,2.8508,2.8507,2.851,2.8529,2.8529,2.8529,2.853,0,2.8175,2.8182,2.8206,2.8235,2.8255,2.8278,2.8301,2.8314,2.8334,2.8354,2.8386,2.8406,2.8447,2.8478,2.8511,2.8528,2.8533,2.8534,2.8541,2.8537,2.853,2.8535,2.8479,2.8533,2.8532,2.8532,2.8532,2.8532,2.8198,2.8217,2.8241,2.8269,2.8288,2.831,2.8331,2.8348,2.8374,2.8408,2.8416,2.845,2.8477,2.8522,2.854,2.8568,2.8564,2.8573,2.8576,2.8578,2.8579,2.8526,2.8574,2.8574,2.8574,2.8574,2.8574,0,2.8232,2.8249,2.8275,2.8307,2.833,2.8332,2.8359,2.8378,2.8407,2.8432,2.8457,2.8495,2.8527,2.8551,2.8584,2.8602,2.8606,2.8611,2.8609,2.8613,2.8579,2.8571,2.8608,2.8608,2.8608,2.8608,2.8608,2.8608,2.8253,2.8286,2.8297,2.8341,2.8358,2.839,2.8405,2.8427,2.8447,2.8488,2.8514,2.853,2.8556,2.8591,2.8621,2.8628,2.864,2.8645,2.8652,2.8619,2.8616,2.8612,2.8604,2.8647,2.8647,2.8684,2.8684,2.8684]},{"header":{"parameterUnit":"m.s-1","parameterCategory":1,"la1":30.2991,"la2":30.254,"lo1":-89.0895,"lo2":-89.0444,"dy":0.0017,"dx":0.0017,"nx":28,"ny":28,"refTime":"2025-01-31T09:00:00:Z","depth":0,"parameterNumber":3,"parameterNumberName":"V-component_of_WINDS"},"data":[0,0,0,0,0,0,0,0,0,0,0,0,0,0,0,0,0,0,0,0,0,0,0,0,0,0,0,0,0,0,0,0,0,0,0,0,0,0,0,0,0,0,0,0,0,0,0,0,0,0,0,0,0,0,0,0,0,0,2.8758,2.8758,0,2.879,2.879,2.8791,2.8791,2.8791,2.8791,2.879,2.882,2.8821,2.8822,0,0,0,0,0,0,0,0,0,0,0,0,0,2.8693,2.8694,2.8758,2.8758,2.8758,2.879,2.879,2.8791,2.8791,2.8791,2.8791,2.879,2.8819,2.8821,2.8822,0,0,0,0,0,0,0,0,0,0,0,0,0,2.8723,2.8695,2.8758,2.8763,2.8763,2.879,2.879,2.8791,2.8792,2.8791,2.879,2.879,2.8819,2.882,2.8822,2.8844,0,0,2.8827,2.8828,0,0,0,0,0,0,0,0,2.8721,2.8725,2.8761,2.8762,2.8763,2.8786,2.8778,2.8809,2.8792,2.8781,2.879,2.879,2.8809,2.8811,2.8818,2.8846,2.8847,2.8828,2.8829,2.8829,2.883,0,0,0,0,0,0,0,2.8719,2.8724,2.877,2.8762,2.8763,2.8762,2.8766,2.8784,2.8797,2.8782,2.8782,2.8786,2.8809,2.8817,2.8819,2.8848,2.8828,2.8829,2.883,2.8831,2.8896,2.8896,0,0,0,0,0,0,2.8717,2.8722,2.8769,2.8771,2.8741,2.8764,2.8768,2.8779,2.8797,2.88,2.8786,2.8786,2.8814,2.8817,2.882,2.8848,2.8829,2.8831,2.8832,2.8895,2.8896,2.8897,0,0,0,0,0,0,2.8715,2.8721,2.8768,2.8747,2.8753,2.8766,2.8778,2.878,2.8788,2.8801,2.8803,2.8792,2.8814,2.8818,2.8839,2.8849,2.8832,2.8833,2.8894,2.8895,2.8896,2.8904,0,0,0,0,0,0,2.8713,2.872,2.873,2.8747,2.8754,2.8787,2.8779,2.8781,2.8791,2.8791,2.8807,2.8809,2.8814,2.8836,2.8841,2.8851,2.8835,2.8893,2.8895,2.8896,2.8903,2.8906,2.8908,0,0,0,0,0,2.8711,2.8729,2.873,2.8736,2.8766,2.8788,2.8791,2.8798,2.8792,2.8801,2.881,2.8808,2.8847,2.8839,2.8843,2.8855,2.8893,2.8894,2.8896,2.8902,2.8905,2.8908,0,0,0,0,0,0,2.8711,2.8732,2.8733,2.8758,2.8771,2.8788,2.8799,2.88,2.8815,2.8814,2.882,2.8823,2.8845,2.8851,2.8841,2.8878,2.8869,2.8872,2.8873,2.8875,2.8878,2.8876,2.8836,0,0,0,0,0,2.8714,2.8732,2.8748,2.8768,2.8775,2.8786,2.8796,2.88,2.8813,2.8819,2.8829,2.8841,2.8856,2.8866,2.8881,2.8904,2.8908,2.8914,2.8916,2.8918,2.8921,2.8934,2.8938,2.8902,2.8902,2.8902,0,0,2.872,2.8734,2.8744,2.8769,2.878,2.8797,2.8791,2.8809,2.8821,2.8821,2.8842,2.885,2.8864,2.8887,2.8897,2.8893,2.8931,2.892,2.8922,2.8923,2.8936,2.894,2.8943,2.8903,2.8903,2.8902,0,0,2.8741,2.8753,2.8771,2.8783,2.88,2.8808,2.8812,2.8829,2.8835,2.8857,2.8857,2.8871,2.8897,2.8908,2.8916,2.8942,2.8941,2.8946,2.8958,2.8971,2.8974,2.8976,2.8986,2.899,2.8948,2.8948,2.8948,0,2.8746,2.8773,2.878,2.8799,2.881,2.8812,2.8831,2.8841,2.8862,2.8869,2.8865,2.8898,2.8908,2.8933,2.894,2.8946,2.8952,2.8945,2.8973,2.8976,2.8978,2.8988,2.8991,2.8949,2.8949,2.8949,2.8949,0,2.8779,2.8797,2.881,2.8832,2.8844,2.8862,2.8872,2.8884,2.8887,2.8894,2.8916,2.8928,2.8946,2.8952,2.8954,2.8978,2.8976,2.8972,2.8964,2.8982,2.8991,2.8995,2.895,2.8949,2.8949,2.8949,0,0,2.8799,2.8827,2.8831,2.8842,2.8862,2.8875,2.8894,2.8913,2.8922,2.8936,2.8952,2.8974,2.8972,2.8982,2.8985,2.8997,2.9017,2.8992,2.8992,2.8997,2.9045,2.9049,2.9053,2.9017,2.9017,2.9018,2.9044,0,2.8822,2.8857,2.8865,2.8895,2.8912,2.8915,2.8931,2.8944,2.8952,2.8967,2.8975,2.8991,2.8986,2.8992,2.9004,2.9012,2.9027,2.901,2.9031,2.9032,2.9028,2.9057,2.906,2.9085,2.9048,2.9048,2.9049,0,2.8854,2.8871,2.8903,2.8922,2.8929,2.8944,2.8962,2.8976,2.8992,2.8996,2.9008,2.9011,2.9029,2.902,2.9046,2.9034,2.9043,2.9049,2.905,2.9052,2.9042,2.9061,2.9093,2.9097,2.9054,2.9054,2.9054,0,2.8867,2.8898,2.8921,2.893,2.8952,2.8962,2.8972,2.8986,2.8997,2.9013,2.902,2.9037,2.9046,2.9059,2.9066,2.9058,2.9092,2.9082,2.9096,2.9096,2.9103,2.9103,2.9137,2.9108,2.9107,2.9107,2.9107,0,2.8892,2.8912,2.8928,2.8942,2.8964,2.8972,2.8993,2.9002,2.9016,2.9032,2.9034,2.9048,2.9056,2.9072,2.9077,2.9098,2.9102,2.9106,2.9107,2.9106,2.9106,2.9113,2.9111,2.9108,2.9108,2.9108,2.9108,0,2.8911,2.8922,2.8948,2.8967,2.8973,2.8988,2.9004,2.9018,2.9026,2.9046,2.9051,2.9063,2.9082,2.909,2.9112,2.9115,2.914,2.9139,2.9135,2.9136,2.9149,2.9148,2.919,2.9196,2.9162,2.9162,2.9162,0,2.8926,2.8942,2.8964,2.8975,2.8986,2.9004,2.9016,2.9025,2.9037,2.9056,2.9068,2.9086,2.9102,2.9131,2.9141,2.9158,2.9159,2.9172,2.9161,2.916,2.916,2.916,2.9162,2.9174,2.9175,2.9175,2.9175,0,2.8953,2.8959,2.8977,2.8997,2.9012,2.9028,2.9043,2.9052,2.9063,2.9077,2.9097,2.9109,2.9133,2.9151,2.9169,2.9178,2.9179,2.9179,2.9183,2.9182,2.918,2.9182,2.9142,2.9178,2.9177,2.9177,2.9177,2.9177,2.8971,2.8986,2.9004,2.9024,2.9037,2.9052,2.9067,2.9077,2.9095,2.9116,2.9119,2.9141,2.9156,2.9181,2.919,2.9206,2.9203,2.9208,2.921,2.9212,2.9213,2.9177,2.9209,2.9209,2.9209,2.9209,2.9209,0,2.8999,2.9012,2.903,2.9053,2.9069,2.907,2.9087,2.91,2.912,2.9134,2.915,2.9173,2.9192,2.9204,2.9223,2.9233,2.9234,2.9238,2.9238,2.924,2.9214,2.921,2.9237,2.9237,2.9237,2.9237,2.9237,2.9237,2.9016,2.9041,2.9048,2.9079,2.9091,2.9114,2.9124,2.9137,2.915,2.9176,2.9192,2.92,2.9214,2.9234,2.9251,2.9254,2.9261,2.9265,2.9268,2.9244,2.9241,2.9239,2.9234,2.9266,2.9266,2.9292,2.9293,2.9293]}]]